Location: ????? ???????
(25.7275°N, 32.5929°E)
Time: 11:54:52
(UTC+00:00)

Cosmos 44 Rocket - Pass Details

Date: 02 March 2021
Orbit: 636 x 754 km, 65.1° (Epoch: 15 April)

Event Time Altitude Azimuth Distance (km) Brightness Sun altitude
Rises 17:46:29 0° 334° (NNW) 3,201 7.1 -26.6°
Reaches altitude 10° 17:48:54 10° 333° (NNW) 2,270 6.3 -27.1°
Enters shadow 17:53:24 67° 324° (NW) 806 3.6 -28.1°
